Orbital Elements at Epoch 2459200.5 (2020-Dec-17.0) TDB
Reference: JPL 18 (heliocentric ecliptic J2000)
Element | Value | Uncertainty (1-sigma) | Units |
e | .2828570444054911 | 3.2284e-08 | |
a | 2.365701027918554 | 8.7006e-09 | au |
q | 1.696545827214479 | 7.462e-08 | au |
i | 4.037324931248509 | 4.2563e-06 | deg |
node | 182.2236655425915 | 5.5451e-05 | deg |
peri | 153.6650018132291 | 5.5931e-05 | deg |
M | 59.0007187048581 | 7.3823e-06 | deg |
tp | 2458982.682376222271 (2020-May-13.18237622) | 2.6818e-05 | TDB |
period | 1329.040497832544 3.64 | 7.3319e-06 2.007e-08 | d yr |
n | .2708721070479819 | 1.4943e-09 | deg/d |
Q | 3.034856228622628 | 1.1162e-08 | au |
|
| | Orbit Determination Parameters
Additional Information
|